| time (UTC) | temp C | wind direction | speed KPH | gust KPH | rain 1hr cm | rain 24hr cm | rain mn cm | humidity % | barometer mb |
| 20260503053058 | 24 | 180 | 1.6 | 6.4 | 0.00 | 0.00 | 0.00 | 84 | 1012.2 |
| 20260503052556 | 24 | 158 | 1.6 | 4.8 | 0.00 | 0.00 | 0.00 | 84 | 1012.4 |
| 20260503052055 | 24 | 158 | 1.6 | 4.8 | 0.00 | 0.00 | 0.00 | 84 | 1012.6 |
| 20260503051600 | 24 | 0 | 1.6 | 6.4 | 0.00 | 0.00 | 0.00 | 84 | 1012.6 |
| 20260503051055 | 25 | 232 | 1.6 | 6.4 | 0.00 | 0.00 | 0.00 | 84 | 1012.6 |
| 20260503050559 | 25 | 183 | 3.2 | 6.4 | 0.00 | 0.00 | 0.00 | 84 | 1012.7 |
| 20260503050057 | 25 | 173 | 1.6 | 8.0 | 0.00 | 0.00 | 0.00 | 85 | 1012.7 |
| 20260503045557 | 25 | 189 | 1.6 | 8.0 | 0.00 | 0.00 | 0.00 | 85 | 1012.7 |
| 20260503045056 | 25 | 214 | 1.6 | 6.4 | 0.00 | 0.00 | 0.00 | 85 | 1012.9 |
| 20260503044558 | 25 | 0 | 1.6 | 9.7 | 0.00 | 0.00 | 0.00 | 85 | 1012.9 |
| 20260503044103 | 25 | 190 | 3.2 | 9.7 | 0.00 | 0.00 | 0.00 | 85 | 1012.8 |
| 20260503043556 | 25 | 247 | 3.2 | 9.7 | 0.00 | 0.00 | 0.00 | 85 | 1012.8 |
| 20260503043057 | 25 | 248 | 3.2 | 11.3 | 0.00 | 0.00 | 0.00 | 85 | 1012.8 |
| 20260503042556 | 25 | 199 | 4.8 | 11.3 | 0.00 | 0.00 | 0.00 | 85 | 1012.7 |
| 20260503042059 | 25 | 171 | 3.2 | 11.3 | 0.00 | 0.00 | 0.00 | 85 | 1012.6 |
| 20260503041559 | 25 | 150 | 3.2 | 11.3 | 0.00 | 0.00 | 0.00 | 84 | 1012.8 |
| 20260503041055 | 25 | 200 | 0.0 | 8.0 | 0.00 | 0.00 | 0.00 | 84 | 1012.7 |
| 20260503040555 | 25 | 223 | 3.2 | 8.0 | 0.00 | 0.00 | 0.00 | 84 | 1012.7 |
| 20260503040059 | 25 | 260 | 3.2 | 6.4 | 0.00 | 0.00 | 0.00 | 84 | 1012.6 |
| 20260503035557 | 25 | 193 | 0.0 | 6.4 | 0.00 | 0.00 | 0.00 | 84 | 1012.5 |
| 20260503035059 | 25 | 250 | 1.6 | 8.0 | 0.00 | 0.00 | 0.00 | 84 | 1012.7 |
| 20260503034600 | 25 | 240 | 3.2 | 8.0 | 0.00 | 0.00 | 0.00 | 84 | 1012.5 |
| 20260503034057 | 25 | 241 | 1.6 | 11.3 | 0.00 | 0.00 | 0.00 | 83 | 1012.5 |
| 20260503033556 | 25 | 0 | 1.6 | 11.3 | 0.00 | 0.00 | 0.00 | 83 | 1012.5 |
| 20260503033101 | 25 | 269 | 4.8 | 8.0 | 0.00 | 0.00 | 0.00 | 83 | 1012.4 |
| 20260503032600 | 25 | 232 | 1.6 | 6.4 | 0.00 | 0.00 | 0.00 | 82 | 1012.3 |
| 20260503032056 | 25 | 223 | 3.2 | 6.4 | 0.00 | 0.00 | 0.00 | 82 | 1012.1 |
| 20260503031600 | 25 | 142 | 0.0 | 6.4 | 0.00 | 0.00 | 0.00 | 82 | 1012.1 |
| 20260503031056 | 25 | 209 | 1.6 | 8.0 | 0.00 | 0.00 | 0.00 | 81 | 1012.0 |
| 20260503030556 | 26 | 213 | 1.6 | 8.0 | 0.00 | 0.00 | 0.00 | 81 | 1012.0 |
| 20260503025559 | 26 | 256 | 1.6 | 12.9 | 0.00 | 0.00 | 0.00 | 80 | 1012.1 |
| 20260503025056 | 26 | 254 | 3.2 | 12.9 | 0.00 | 0.00 | 0.00 | 80 | 1012.2 |
| 20260503024605 | 26 | 0 | 3.2 | 11.3 | 0.00 | 0.00 | 0.00 | 80 | 1012.1 |
| 20260503024056 | 26 | 259 | 1.6 | 11.3 | 0.00 | 0.00 | 0.00 | 79 | 1012.1 |
| 20260503023555 | 26 | 0 | 3.2 | 12.9 | 0.00 | 0.00 | 0.00 | 79 | 1012.1 |
| 20260503023103 | 26 | 259 | 3.2 | 12.9 | 0.00 | 0.00 | 0.00 | 78 | 1012.1 |
| 20260503022556 | 26 | 254 | 1.6 | 11.3 | 0.00 | 0.00 | 0.00 | 78 | 1012.0 |
| 20260503022056 | 26 | 214 | 3.2 | 11.3 | 0.00 | 0.00 | 0.00 | 77 | 1012.0 |
| 20260503021600 | 26 | 196 | 3.2 | 9.7 | 0.00 | 0.00 | 0.00 | 77 | 1011.9 |
| 20260503021129 | 26 | 257 | 3.2 | 11.3 | 0.00 | 0.00 | 0.00 | 76 | 1011.9 |
| 20260503020556 | 26 | 305 | 3.2 | 11.3 | 0.00 | 0.00 | 0.00 | 76 | 1011.8 |
| 20260503020101 | 26 | 157 | 1.6 | 9.7 | 0.00 | 0.00 | 0.00 | 76 | 1011.7 |
| 20260503015559 | 26 | 150 | 3.2 | 11.3 | 0.00 | 0.00 | 0.00 | 75 | 1011.8 |
| 20260503015059 | 26 | 227 | 3.2 | 16.1 | 0.00 | 0.00 | 0.00 | 75 | 1011.7 |
| 20260503014624 | 26 | 109 | 6.4 | 16.1 | 0.00 | 0.00 | 0.00 | 75 | 1011.7 |
| 20260503014056 | 26 | 263 | 6.4 | 12.9 | 0.00 | 0.00 | 0.00 | 74 | 1011.7 |
| 20260503013556 | 27 | 232 | 4.8 | 14.5 | 0.00 | 0.00 | 0.00 | 73 | 1011.7 |
| 20260503013059 | 27 | 204 | 4.8 | 14.5 | 0.00 | 0.00 | 0.00 | 73 | 1011.7 |
| 20260503012602 | 27 | 240 | 6.4 | 17.7 | 0.00 | 0.00 | 0.00 | 72 | 1011.6 |
| 20260503012056 | 27 | 188 | 6.4 | 17.7 | 0.00 | 0.00 | 0.00 | 72 | 1011.6 |
| 20260503011625 | 27 | 211 | 4.8 | 17.7 | 0.00 | 0.00 | 0.00 | 71 | 1011.5 |
| 20260503011056 | 27 | 236 | 4.8 | 17.7 | 0.00 | 0.00 | 0.00 | 70 | 1011.4 |
| 20260503010556 | 27 | 167 | 4.8 | 12.9 | 0.00 | 0.00 | 0.00 | 70 | 1011.4 |
| 20260503010059 | 27 | 231 | 4.8 | 12.9 | 0.00 | 0.00 | 0.00 | 69 | 1011.3 |
| 20260503005559 | 27 | 211 | 3.2 | 17.7 | 0.00 | 0.00 | 0.00 | 68 | 1011.3 |
| 20260503005059 | 27 | 246 | 4.8 | 17.7 | 0.00 | 0.00 | 0.00 | 67 | 1011.2 |
| 20260503004604 | 27 | 173 | 6.4 | 14.5 | 0.00 | 0.00 | 0.00 | 67 | 1011.2 |
| 20260503004056 | 27 | 235 | 4.8 | 16.1 | 0.00 | 0.00 | 0.00 | 66 | 1011.2 |
| 20260503003556 | 28 | 247 | 6.4 | 16.1 | 0.00 | 0.00 | 0.00 | 65 | 1011.1 |
| 20260503003106 | 28 | 178 | 6.4 | 17.7 | 0.00 | 0.00 | 0.00 | 64 | 1011.0 |
| 20260503002559 | 28 | 244 | 6.4 | 19.3 | 0.00 | 0.00 | 0.00 | 63 | 1010.9 |
| 20260503002056 | 28 | 242 | 6.4 | 19.3 | 0.00 | 0.00 | 0.00 | 62 | 1011.0 |
| 20260503001559 | 28 | 245 | 6.4 | 16.1 | 0.00 | 0.00 | 0.00 | 61 | 1010.8 |
| 20260503001057 | 28 | 319 | 8.0 | 16.1 | 0.00 | 0.00 | 0.00 | 61 | 1010.7 |
| 20260503000555 | 28 | 269 | 6.4 | 14.5 | 0.00 | 0.00 | 0.00 | 60 | 1010.7 |
| 20260503000059 | 29 | 224 | 6.4 | 14.5 | 0.00 | 0.00 | 0.00 | 59 | 1010.7 |
| 20260502235558 | 29 | 287 | 4.8 | 14.5 | 0.00 | 0.00 | 0.00 | 58 | 1010.5 |
| 20260502235056 | 29 | 191 | 6.4 | 17.7 | 0.00 | 0.00 | 0.00 | 57 | 1010.4 |
| 20260502234557 | 30 | 225 | 6.4 | 17.7 | 0.00 | 0.00 | 0.00 | 56 | 1010.3 |
| 20260502234058 | 30 | 269 | 6.4 | 17.7 | 0.00 | 0.00 | 0.00 | 55 | 1010.3 |
| 20260502233555 | 30 | 263 | 8.0 | 17.7 | 0.00 | 0.00 | 0.00 | 54 | 1010.3 |
| 20260502233056 | 30 | 242 | 9.7 | 16.1 | 0.00 | 0.00 | 0.00 | 53 | 1010.2 |
| 20260502232556 | 30 | 229 | 6.4 | 16.1 | 0.00 | 0.00 | 0.00 | 53 | 1010.0 |
| 20260502232056 | 30 | 221 | 8.0 | 16.1 | 0.00 | 0.00 | 0.00 | 51 | 1009.9 |
| 20260502231558 | 30 | 240 | 4.8 | 16.1 | 0.00 | 0.00 | 0.00 | 51 | 1009.9 |
| 20260502231100 | 31 | 207 | 3.2 | 17.7 | 0.00 | 0.00 | 0.00 | 49 | 1009.8 |
| 20260502230628 | 31 | 301 | 6.4 | 17.7 | 0.00 | 0.00 | 0.00 | 48 | 1009.7 |
| 20260502230100 | 31 | 217 | 4.8 | 19.3 | 0.00 | 0.00 | 0.00 | 48 | 1009.6 |
| 20260502225558 | 31 | 242 | 6.4 | 19.3 | 0.00 | 0.00 | 0.00 | 47 | 1009.5 |
| 20260502225056 | 32 | 223 | 6.4 | 19.3 | 0.00 | 0.00 | 0.00 | 46 | 1009.4 |
| 20260502224609 | 32 | 200 | 8.0 | 19.3 | 0.00 | 0.00 | 0.00 | 45 | 1009.4 |
| 20260502224056 | 32 | 231 | 6.4 | 14.5 | 0.00 | 0.00 | 0.00 | 45 | 1009.2 |
| 20260502223557 | 32 | 295 | 4.8 | 24.1 | 0.00 | 0.00 | 0.00 | 45 | 1009.2 |
| 20260502223058 | 32 | 258 | 8.0 | 24.1 | 0.00 | 0.00 | 0.00 | 44 | 1009.1 |
| 20260502222556 | 32 | 186 | 8.0 | 22.5 | 0.00 | 0.00 | 0.00 | 44 | 1009.1 |
| 20260502222055 | 33 | 209 | 8.0 | 20.9 | 0.00 | 0.00 | 0.00 | 43 | 1009.2 |
| 20260502221558 | 33 | 157 | 6.4 | 24.1 | 0.00 | 0.00 | 0.00 | 43 | 1009.2 |
| 20260502221059 | 33 | 229 | 8.0 | 24.1 | 0.00 | 0.00 | 0.00 | 42 | 1009.2 |
| 20260502220559 | 33 | 280 | 6.4 | 20.9 | 0.00 | 0.00 | 0.00 | 43 | 1009.1 |
| 20260502220111 | 33 | 184 | 8.0 | 22.5 | 0.00 | 0.00 | 0.00 | 44 | 1009.1 |
| 20260502215558 | 33 | 226 | 9.7 | 22.5 | 0.00 | 0.00 | 0.00 | 44 | 1009.0 |
| 20260502215100 | 33 | 90 | 4.8 | 22.5 | 0.00 | 0.00 | 0.00 | 45 | 1009.0 |
| 20260502214558 | 33 | 261 | 8.0 | 20.9 | 0.00 | 0.00 | 0.00 | 43 | 1009.0 |
| 20260502214055 | 33 | 245 | 4.8 | 22.5 | 0.00 | 0.00 | 0.00 | 44 | 1008.9 |
| 20260502213600 | 33 | 241 | 6.4 | 29.0 | 0.00 | 0.00 | 0.00 | 44 | 1008.8 |
| 20260502213123 | 33 | 173 | 8.0 | 29.0 | 0.00 | 0.00 | 0.00 | 42 | 1008.9 |
| 20260502212556 | 33 | 246 | 14.5 | 29.0 | 0.00 | 0.00 | 0.00 | 42 | 1008.9 |
| 20260502212056 | 34 | 243 | 8.0 | 25.7 | 0.00 | 0.00 | 0.00 | 46 | 1008.8 |
| 20260502211637 | 34 | 277 | 6.4 | 29.0 | 0.00 | 0.00 | 0.00 | 44 | 1008.7 |
| 20260502211057 | 33 | 158 | 12.9 | 29.0 | 0.00 | 0.00 | 0.00 | 45 | 1008.8 |
| 20260502210556 | 34 | 201 | 8.0 | 24.1 | 0.00 | 0.00 | 0.00 | 43 | 1008.9 |
| 20260502210109 | 34 | 214 | 6.4 | 25.7 | 0.00 | 0.00 | 0.00 | 44 | 1008.6 |
| 20260502205558 | 34 | 208 | 9.7 | 25.7 | 0.00 | 0.00 | 0.00 | 43 | 1008.6 |
| 20260502205058 | 34 | 177 | 6.4 | 29.0 | 0.00 | 0.00 | 0.00 | 43 | 1008.7 |
| 20260502204557 | 34 | 217 | 9.7 | 29.0 | 0.00 | 0.00 | 0.00 | 44 | 1008.7 |
| 20260502204100 | 34 | 180 | 9.7 | 25.7 | 0.00 | 0.00 | 0.00 | 45 | 1008.6 |
| 20260502203558 | 34 | 211 | 9.7 | 22.5 | 0.00 | 0.00 | 0.00 | 44 | 1008.7 |
| 20260502203101 | 34 | 235 | 6.4 | 25.7 | 0.00 | 0.00 | 0.00 | 45 | 1008.7 |
| 20260502202558 | 34 | 197 | 11.3 | 25.7 | 0.00 | 0.00 | 0.00 | 44 | 1008.8 |
| 20260502202059 | 34 | 253 | 11.3 | 35.4 | 0.00 | 0.00 | 0.00 | 46 | 1008.7 |
| 20260502201605 | 34 | 250 | 9.7 | 38.6 | 0.00 | 0.00 | 0.00 | 45 | 1008.8 |
| 20260502201056 | 34 | 296 | 9.7 | 38.6 | 0.00 | 0.00 | 0.00 | 43 | 1008.9 |
| 20260502200559 | 34 | 193 | 11.3 | 27.4 | 0.00 | 0.00 | 0.00 | 44 | 1008.9 |
| 20260502200058 | 34 | 234 | 9.7 | 38.6 | 0.00 | 0.00 | 0.00 | 46 | 1008.9 |
| 20260502195600 | 33 | 194 | 12.9 | 38.6 | 0.00 | 0.00 | 0.00 | 44 | 1009.0 |
| 20260502195100 | 34 | 252 | 12.9 | 30.6 | 0.00 | 0.00 | 0.00 | 45 | 1009.0 |
| 20260502194608 | 34 | 237 | 9.7 | 30.6 | 0.00 | 0.00 | 0.00 | 48 | 1009.2 |
| 20260502194058 | 34 | 160 | 9.7 | 30.6 | 0.00 | 0.00 | 0.00 | 49 | 1009.1 |
| 20260502193604 | 34 | 178 | 11.3 | 30.6 | 0.00 | 0.00 | 0.00 | 46 | 1009.2 |
| 20260502193105 | 34 | 300 | 11.3 | 29.0 | 0.00 | 0.00 | 0.00 | 47 | 1009.3 |
| 20260502192602 | 33 | 295 | 12.9 | 33.8 | 0.00 | 0.00 | 0.00 | 46 | 1009.2 |
| 20260502192100 | 33 | 236 | 12.9 | 33.8 | 0.00 | 0.00 | 0.00 | 46 | 1009.3 |
| 20260502191604 | 34 | 234 | 8.0 | 32.2 | 0.00 | 0.00 | 0.00 | 46 | 1009.3 |
| 20260502191100 | 34 | 197 | 11.3 | 32.2 | 0.00 | 0.00 | 0.00 | 48 | 1009.3 |
| 20260502190600 | 33 | 155 | 12.9 | 32.2 | 0.00 | 0.00 | 0.00 | 48 | 1009.4 |
| 20260502190059 | 33 | 174 | 11.3 | 35.4 | 0.00 | 0.00 | 0.00 | 50 | 1009.4 |
| 20260502185628 | 33 | 217 | 16.1 | 37.0 | 0.00 | 0.00 | 0.00 | 49 | 1009.5 |
| 20260502185056 | 33 | 200 | 14.5 | 37.0 | 0.00 | 0.00 | 0.00 | 50 | 1009.4 |
| 20260502184602 | 33 | 201 | 16.1 | 32.2 | 0.00 | 0.00 | 0.00 | 51 | 1009.5 |
| 20260502184055 | 33 | 210 | 12.9 | 32.2 | 0.00 | 0.00 | 0.00 | 53 | 1009.3 |
| 20260502183556 | 33 | 169 | 19.3 | 32.2 | 0.00 | 0.00 | 0.00 | 51 | 1009.4 |
| 20260502183108 | 33 | 190 | 12.9 | 37.0 | 0.00 | 0.00 | 0.00 | 55 | 1009.4 |
| 20260502182559 | 33 | 152 | 16.1 | 37.0 | 0.00 | 0.00 | 0.00 | 54 | 1009.4 |
| 20260502182056 | 33 | 187 | 12.9 | 24.1 | 0.00 | 0.00 | 0.00 | 57 | 1009.5 |
| 20260502181557 | 33 | 160 | 11.3 | 25.7 | 0.00 | 0.00 | 0.00 | 56 | 1009.5 |
| 20260502181059 | 33 | 196 | 11.3 | 30.6 | 0.00 | 0.00 | 0.00 | 55 | 1009.8 |
| 20260502180559 | 33 | 231 | 16.1 | 30.6 | 0.00 | 0.00 | 0.00 | 59 | 1009.7 |
| 20260502164056 | 32 | 236 | 14.5 | 29.0 | 0.00 | 0.00 | 0.00 | 65 | 1010.0 |
| 20260502163556 | 32 | 214 | 11.3 | 27.4 | 0.00 | 0.00 | 0.00 | 65 | 1010.1 |
| 20260502163059 | 32 | 178 | 12.9 | 33.8 | 0.00 | 0.00 | 0.00 | 66 | 1010.1 |
| 20260502162556 | 32 | 168 | 11.3 | 33.8 | 0.00 | 0.00 | 0.00 | 67 | 1010.2 |
| 20260502162055 | 32 | 128 | 12.9 | 30.6 | 0.00 | 0.00 | 0.00 | 67 | 1010.3 |
| 20260502161602 | 32 | 151 | 11.3 | 27.4 | 0.00 | 0.00 | 0.00 | 67 | 1010.2 |
| 20260502161058 | 32 | 150 | 12.9 | 27.4 | 0.00 | 0.00 | 0.00 | 68 | 1010.3 |
| 20260502160555 | 31 | 174 | 8.0 | 22.5 | 0.00 | 0.00 | 0.00 | 69 | 1010.2 |
| 20260502152056 | 31 | 144 | 14.5 | 25.7 | 0.00 | 0.00 | 0.00 | 70 | 1010.7 |
| 20260502151607 | 31 | 195 | 8.0 | 25.7 | 0.00 | 0.00 | 0.00 | 68 | 1010.6 |
| 20260502151056 | 31 | 225 | 11.3 | 25.7 | 0.00 | 0.00 | 0.00 | 68 | 1010.6 |
| 20260502150555 | 31 | 115 | 8.0 | 27.4 | 0.00 | 0.00 | 0.00 | 67 | 1010.5 |
| 20260502130555 | 27 | 94 | 8.0 | 25.7 | 0.00 | 0.00 | 0.00 | 82 | 1010.3 |
| 20260502130110 | 27 | 157 | 11.3 | 25.7 | 0.00 | 0.00 | 0.00 | 83 | 1010.4 |
| 20260502123559 | 25 | 144 | 8.0 | 16.1 | 0.00 | 0.00 | 0.00 | 91 | 1010.3 |
| 20260502123058 | 25 | 147 | 1.6 | 8.0 | 0.00 | 0.00 | 0.00 | 92 | 1010.4 |
| 20260502122555 | 24 | 83 | 1.6 | 8.0 | 0.00 | 0.00 | 0.00 | 92 | 1010.4 |
| 20260502122058 | 24 | 175 | 0.0 | 6.4 | 0.00 | 0.00 | 0.00 | 93 | 1010.4 |
| 20260502121558 | 24 | 139 | 0.0 | 8.0 | 0.00 | 0.00 | 0.00 | 93 | 1010.3 |
| 20260502121056 | 23 | 123 | 1.6 | 8.0 | 0.00 | 0.00 | 0.00 | 93 | 1010.3 |
| 20260502120559 | 23 | 130 | 1.6 | 4.8 | 0.00 | 0.00 | 0.00 | 93 | 1010.4 |
| 20260502115555 | 23 | 0 | 1.6 | 4.8 | 0.00 | 0.00 | 0.00 | 93 | 1010.3 |
| 20260502115055 | 23 | 130 | 1.6 | 6.4 | 0.00 | 0.00 | 0.00 | 93 | 1010.2 |
| 20260502114610 | 22 | 0 | 1.6 | 6.4 | 0.00 | 0.00 | 0.00 | 93 | 1010.3 |
| 20260502114057 | 22 | 0 | 0.0 | 3.2 | 0.00 | 0.00 | 0.00 | 93 | 1010.3 |
| 20260502113559 | 22 | 0 | 0.0 | 3.2 | 0.00 | 0.00 | 0.00 | 93 | 1010.3 |
| 20260502113057 | 22 | 0 | 0.0 | 0.0 | 0.00 | 0.00 | 0.00 | 92 | 1010.3 |
| 20260502112601 | 22 | 0 | 0.0 | 1.6 | 0.00 | 0.00 | 0.00 | 92 | 1010.3 |
| 20260502112055 | 22 | 0 | 0.0 | 1.6 | 0.00 | 0.00 | 0.00 | 92 | 1010.5 |
| 20260502111558 | 22 | 0 | 0.0 | 1.6 | 0.00 | 0.00 | 0.00 | 92 | 1010.4 |
| 20260502111058 | 22 | 0 | 0.0 | 0.0 | 0.00 | 0.00 | 0.00 | 92 | 1010.4 |
| 20260502110558 | 22 | 0 | 0.0 | 0.0 | 0.00 | 0.00 | 0.00 | 92 | 1010.4 |
| 20260502110056 | 22 | 0 | 0.0 | 0.0 | 0.00 | 0.00 | 0.00 | 92 | 1010.4 |
| 20260502105556 | 22 | 0 | 0.0 | 0.0 | 0.00 | 0.00 | 0.00 | 92 | 1010.5 |
| 20260502105055 | 22 | 0 | 0.0 | 0.0 | 0.00 | 0.00 | 0.00 | 92 | 1010.4 |
| 20260502104556 | 22 | 0 | 0.0 | 0.0 | 0.00 | 0.00 | 0.00 | 92 | 1010.5 |
| 20260502104059 | 22 | 0 | 0.0 | 0.0 | 0.00 | 0.00 | 0.00 | 92 | 1010.5 |
| 20260502103556 | 22 | 0 | 0.0 | 0.0 | 0.00 | 0.00 | 0.00 | 92 | 1010.5 |
| 20260502103059 | 22 | 0 | 0.0 | 0.0 | 0.00 | 0.00 | 0.00 | 92 | 1010.4 |
| 20260502102555 | 22 | 0 | 0.0 | 0.0 | 0.00 | 0.00 | 0.00 | 92 | 1010.4 |
| 20260502102055 | 22 | 0 | 0.0 | 0.0 | 0.00 | 0.00 | 0.00 | 92 | 1010.3 |
| 20260502101624 | 22 | 0 | 0.0 | 0.0 | 0.00 | 0.00 | 0.00 | 92 | 1010.2 |
| 20260502101056 | 22 | 0 | 0.0 | 0.0 | 0.00 | 0.00 | 0.00 | 92 | 1010.2 |
| 20260502100556 | 22 | 0 | 0.0 | 0.0 | 0.00 | 0.00 | 0.00 | 92 | 1010.4 |
| 20260502100104 | 21 | 0 | 0.0 | 0.0 | 0.00 | 0.00 | 0.00 | 92 | 1010.4 |
| 20260502091056 | 21 | 0 | 0.0 | 0.0 | 0.00 | 0.00 | 0.00 | 92 | 1010.4 |
| 20260502090555 | 21 | 0 | 0.0 | 0.0 | 0.00 | 0.00 | 0.00 | 92 | 1010.4 |
| 20260502090113 | 21 | 0 | 0.0 | 0.0 | 0.00 | 0.00 | 0.00 | 91 | 1010.3 |
| 20260502080109 | 21 | 0 | 0.0 | 0.0 | 0.00 | 0.00 | 0.00 | 91 | 1010.2 |
| 20260502071058 | 21 | 0 | 0.0 | 0.0 | 0.00 | 0.00 | 0.00 | 90 | 1010.4 |
| 20260502070559 | 21 | 0 | 0.0 | 0.0 | 0.00 | 0.00 | 0.00 | 90 | 1010.4 |
| 20260502070123 | 21 | 0 | 0.0 | 0.0 | 0.00 | 0.00 | 0.00 | 90 | 1010.6 |
| 20260502065559 | 21 | 0 | 0.0 | 0.0 | 0.00 | 0.00 | 0.00 | 90 | 1010.6 |
| 20260502065058 | 21 | 0 | 0.0 | 0.0 | 0.00 | 0.00 | 0.00 | 89 | 1010.6 |
| 20260502064559 | 21 | 0 | 0.0 | 0.0 | 0.00 | 0.00 | 0.00 | 89 | 1010.7 |
| 20260502064055 | 21 | 0 | 0.0 | 0.0 | 0.00 | 0.00 | 0.00 | 89 | 1010.6 |
| 20260502063558 | 21 | 0 | 0.0 | 0.0 | 0.00 | 0.00 | 0.00 | 89 | 1010.5 |
| 20260502063059 | 21 | 0 | 0.0 | 0.0 | 0.00 | 0.00 | 0.00 | 89 | 1010.5 |
| 20260502062556 | 21 | 0 | 0.0 | 0.0 | 0.00 | 0.00 | 0.00 | 89 | 1010.7 |
| 20260502062058 | 21 | 0 | 0.0 | 0.0 | 0.00 | 0.00 | 0.00 | 88 | 1010.6 |
| 20260502061606 | 21 | 0 | 0.0 | 0.0 | 0.00 | 0.00 | 0.00 | 88 | 1010.7 |
| 20260502061054 | 21 | 0 | 0.0 | 0.0 | 0.00 | 0.00 | 0.00 | 88 | 1010.7 |
| 20260502060558 | 21 | 0 | 0.0 | 0.0 | 0.00 | 0.00 | 0.00 | 88 | 1010.6 |
| 20260502055558 | 21 | 0 | 0.0 | 0.0 | 0.00 | 0.00 | 0.00 | 88 | 1010.7 |
| 20260502055100 | 21 | 0 | 0.0 | 0.0 | 0.00 | 0.00 | 0.00 | 87 | 1010.6 |
| 20260502054600 | 21 | 0 | 0.0 | 0.0 | 0.00 | 0.00 | 0.00 | 87 | 1010.6 |
| 20260502054058 | 21 | 0 | 0.0 | 0.0 | 0.00 | 0.00 | 0.00 | 87 | 1010.6 |
| 20260502053558 | 21 | 0 | 0.0 | 0.0 | 0.00 | 0.00 | 0.00 | 87 | 1010.5 |